This is the latest recevied weather packets stored in our database for station/object KF0ZH. If no packets are shown the sender has not sent any weather packets the latest 10 day(s).
| Time | Temp. | Humidity | Pressure | Rain* | Wind** | Luminosity | Snow |
|---|---|---|---|---|---|---|---|
| 1788544385 | 27.22° C | 84% | 1010.3 hPa | 0 mm | 2.24 m/s, 326° | - | - |
| 1788543787 | 26.67° C | 85% | 1010.3 hPa | 0 mm | 3.13 m/s, 336° | - | - |
| 1788543483 | 26.67° C | 86% | 1010.3 hPa | 0 mm | 5.36 m/s, 357° | - | - |
| 1788542582 | 26.67° C | 87% | 1010.1 hPa | 0 mm | 0 m/s | - | - |
| 1788540780 | 27.22° C | 87% | 1009.8 hPa | 0 mm | 2.24 m/s, 7° | - | - |
| 1788540479 | 27.22° C | 88% | 1009.9 hPa | 0 mm | 4.02 m/s, 324° | - | - |
| 1788540180 | 27.22° C | 85% | 1009.9 hPa | 0 mm | 2.68 m/s, 312° | - | - |
| 1788539880 | 27.22° C | 86% | 1009.8 hPa | 0 mm | 2.68 m/s, 341° | - | - |
| 1788539579 | 27.78° C | 85% | 1009.7 hPa | 0 mm | 4.02 m/s, 351° | - | - |
| 1788538384 | 28.33° C | 83% | 1009.5 hPa | 0 mm | 2.24 m/s, 350° | - | - |
| 1788537779 | 28.33° C | 83% | 1009.3 hPa | 0 mm | 2.68 m/s, 330° | - | - |
| 1788537479 | 27.78° C | 83% | 1009.4 hPa | 0 mm | 1.79 m/s, 324° | - | - |
| 1788537182 | 27.78° C | 84% | 1009.4 hPa | 0 mm | 0 m/s | - | - |
| 1788536897 | 27.78° C | 84% | 1009.4 hPa | 0 mm | 0 m/s | - | - |
| 1788536580 | 27.78° C | 85% | 1009.4 hPa | 0 mm | 0 m/s | - | - |
| 1788535383 | 27.78° C | 84% | 1009.2 hPa | 0 mm | 0 m/s | - | - |
| 1788535115 | 27.78° C | 84% | 1009.2 hPa | 0 mm | 0.89 m/s, 317° | - | - |
| 1788534479 | 27.22° C | 86% | 1009 hPa | 0 mm | 0 m/s | - | - |
| 1788534214 | 27.22° C | 87% | 1009 hPa | 0 mm | 0 m/s | - | - |
| 1788534179 | 27.22° C | 87% | 1009 hPa | 0 mm | 0 m/s | - | - |
| 1788533580 | 26.67° C | 88% | 1008.8 hPa | 0 mm | 1.79 m/s, 274° | - | - |
| 1788533279 | 26.67° C | 90% | 1008.9 hPa | 0 mm | 0 m/s | - | - |
| 1788532979 | 26.67° C | 89% | 1008.8 hPa | 0 mm | 0 m/s | - | - |
| 1788532380 | 26.67° C | 91% | 1008.9 hPa | 0 mm | 0 m/s | - | - |
| 1788532079 | 26.67° C | 92% | 1008.9 hPa | 0 mm | 0 m/s | - | - |
* Rain latest hour (hover to see other rain measurements)
** Current wind speed in m/s (hover to see current wind gust speed)